Tracking 30995 objects as of 5-Jul-2025
HD Live streaming from Space Station
objects crossing your sky now

INTELSAT 4-F1

Track INTELSAT 4-F1 now!
INTELSAT 4-F1 is classified as:


NORAD ID: 7815
Int'l Code: 1975-042A
Perigee: 36,029.1 km
Apogee: 36,129.0 km
Inclination: 9.0 °
Period: 1,450.7 minutes
Semi major axis: 42450 km
RCS: 12.6 m2 (large)
Launch date: May 22, 1975
Source: International Telecommunications Satellite Organization (ITSO)
Launch site: AIR FORCE EASTERN TEST RANGE (AFETR)
Your satellite tracking list
Your tracking list is empty




NASA's NSSDC Master Catalog

Two Line Element Set (TLE):
1 07815U 75042A   25186.50109175  .00000037  00000-0  00000-0 0  9999
2 07815   8.9802 308.5539 0011766 258.5021 101.4636  0.99262650118513
Source of the keplerian elements: AFSPC